This demonstration page uses our WeatherBlox Daily Observations layout. Learn more.

Left ArrowRight Arrow

36.17497, -115.13722

Hourly Observations for September 12, 2017

Temp ( °F °C ) Dew Point ( °F °C ) Humidity (%) Winds ( mph kmh ) Pressure ( in mb ) Visibility ( mi km ) Precip ( " mm )
12:53 am 00:53 Mostly Clear 87 30.6 57 13.9 36 36 Calm 29.90 1012 10 16 0.00 0.00
1:53 am 01:53 Mostly Clear 86 30 56 13.3 36 36 SW 3 6 29.89 1012 10 16 0.00 0.00
2:53 am 02:53 Clear 85 29.4 58 14.4 40 40 ENE 3 6 29.89 1012 10 16 0.00 0.00
3:53 am 03:53 Clear 83 28.3 57 13.9 41 41 Calm 29.89 1012 10 16 0.00 0.00
4:53 am 04:53 Clear 79 26.1 59 15 50 50 NNE 6 9 29.91 1013 10 16 0.00 0.00
5:53 am 05:53 Clear 78 25.6 58 14.4 50 50 NW 5 7 29.92 1013 10 16 0.00 0.00
6:53 am 06:53 Sunny 78 25.6 57 13.9 48 48 N 6 9 29.93 1013 10 16 0.00 0.00
7:53 am 07:53 Sunny 82 27.8 55 12.8 40 40 N 7 11 29.93 1014 10 16 0.00 0.00
8:53 am 08:53 Sunny 86 30 54 12.2 33 33 Calm 29.94 1014 10 16 0.00 0.00
9:53 am 09:53 Sunny 90 32.2 52 11.1 27 27 SE 6 9 29.94 1014 10 16 0.00 0.00
10:53 am 10:53 Sunny 92 33.3 52 11.1 26 26 SSE 5 7 29.93 1013 10 16 0.00 0.00
11:53 am 11:53 Sunny 95 35 49 9.4 21 21 SSE 5 7 29.91 1013 10 16 0.00 0.00
12:53 pm 12:53 Sunny 98 36.7 46 7.8 17 17 SSE 8 13 29.87 1012 10 16 0.00 0.00
1:53 pm 13:53 Sunny 99 37.2 45 7.2 16 16 ESE 10 17 29.84 1011 10 16 0.00 0.00
2:53 pm 14:53 Mostly Sunny 100 37.8 44 6.7 15 15 VRB 7 11 29.81 1010 10 16 0.00 0.00
3:53 pm 15:53 Sunny 102 38.9 42 5.6 13 13 SSE 14 22 29.78 1009 10 16 0.00 0.00
4:29 pm 16:29 Sunny with Thunderstorms 102 38.9 38 3.3 11 11 S 14 22 29.62 1003 10 16 0.00 0.00
4:53 pm 16:53 Sunny with Thunderstorms 101 38.3 40 4.4 12 12 SW 8 13 29.77 1008 10 16 0.00 0.00
5:06 pm 17:06 Sunny with Nearby Thunderstorms 101 38.3 39 3.9 12 12 SSW 12 19 29.59 1002 10 16 0.00 0.00
5:22 pm 17:22 Sunny 100 37.8 40 4.4 13 13 SW 9 15 29.59 1002 10 16 0.00 0.00
5:53 pm 17:53 Sunny 100 37.8 40 4.4 13 13 SW 10 17 29.76 1008 10 16 0.00 0.00
6:53 pm 18:53 Clear 98 36.7 42 5.6 15 15 SW 8 13 29.76 1008 10 16 0.00 0.00
7:53 pm 19:53 Clear 96 35.6 41 5 15 15 SW 8 13 29.77 1008 10 16 0.00 0.00
8:53 pm 20:53 Clear 93 33.9 42 5.6 17 17 SW 6 9 29.78 1009 10 16 0.00 0.00
9:53 pm 21:53 Clear 91 32.8 45 7.2 20 20 W 5 7 29.79 1009 10 16 0.00 0.00
10:53 pm 22:53 Clear 88 31.1 46 7.8 23 23 NNW 5 7 29.79 1009 10 16 0.00 0.00
11:53 pm 23:53 Clear 88 31.1 44 6.7 22 22 W 6 9 29.79 1009 10 16 0.00 0.00

Powered by AerisWeather